Location: Great Malvern
(52.1167°N, 2.3167°W)
Time: 00:20:59
(UTC+00:00)

Okean 1 Rocket - Pass Details

Date: 18 September 2020
Orbit: 606 x 635 km, 82.5° (Epoch: 23 October)

Event Time Altitude Azimuth Distance (km) Brightness Sun altitude
Exits shadow 19:51:18 25° 121° (ESE) 1,281 4.1 -15.0°
Maximum altitude 19:52:40 30° 89° (E) 1,141 3.9 -15.2°
Drops below altitude 10° 19:56:36 10° 29° (NNE) 2,035 5.7 -15.8°
Sets 19:59:03 0° 19° (NNE) 2,948 6.6 -16.1°
